Погода в Торгалыге

Россия / Республика Тыва     51°19′55″N   92°49′26″E
темп.,
°C
ветер,
м/с
пор.,
м/с
влажн.,
%
обл.,
%
осадки,
мм/ч
давл.,
гПа
погр.,
м
23 апреля, пт
пт2301:00−5юз1167100 0.0 103316
04:00−6сз0166100 0.0 1034130
07:00−5с1157100 0.0 1034262
10:00−4ссв2254100 0.1 1034936
13:00−2ссв3261100 0.4 10331111
16:00−2ссв326699 0.2 1032841
19:00−3ссв216967 0.3 1032575
22:00−6ююз228522 0.0 103330
24 апреля, сб
сб2401:00−6ююз338374 0.0 103359
04:00−6ююз228497 0.1 103153
07:00−5юз108095 0.1 1029200
10:00−2с2272100 0.1 1026835
13:000с326997 0.9 10251001
16:00+1ссз326757 0.9 1023835
19:000с126338 1.1 1024121
22:00−3ю436999 0.1 102638
25 апреля, вс
вс2501:00−2з1167100 0.1 102627
04:00−4ссз2393100 0.7 1027244
07:00−4ссз2392100 2.4 1028346
10:00−2сз3461100 0.4 10281233
13:00+1ссз344599 0.4 10251862
16:00+2с3540100 0.1 10242136
19:00+1ссв2350100 0.1 1025270
22:00−2ююв117088 0.3 102939
26 апреля, пн
пн2601:00−5ююз32806 0.3 103133
04:00−6ююз32749 0.0 103233
07:00−4ююз11625 0.0 1031100
10:000ссз224380 0.0 10291578
13:00+3с323789 0.1 10272143
16:00+3с333488 0.1 10262093
19:00+1ссв11455 0.1 102778
22:00−3ю44595 0.0 103146
27 апреля, вт
вт2701:00−3ю44573 0.0 103048
04:00−3ю445656 0.0 103045
07:00−1ююз235115 0.0 102974
10:00+6ссз143340 0.0 10251639
13:00+8сз153487 0.0 10212033
16:00+7зюз3642100 0.0 10191615
19:00+6юз245499 0.0 1020261
22:00+1ююз4581100 0.6 102470